Location: Chatou
(48.8898°N, 2.1586°E)
Time: 17:27:26
(UTC+00:00)

Cosmos 2219 Rocket - Pass Details

Date: 03 February 2023
Orbit: 826 x 848 km, 71.0° (Epoch: 29 March)

Event Time Altitude Azimuth Distance (km) Brightness Sun altitude
Rises 18:04:34 0° 162° (SSE) 3,351 5.2 -12.2°
Reaches altitude 10° 18:07:34 10° 146° (SSE) 2,425 4.4 -12.7°
Maximum altitude 18:11:32 20° 100° (E) 1,813 3.4 -13.3°
Enters shadow 18:12:39 19° 84° (E) 1,873 3.4 -13.5°
